Location: Saratoga Springs
(43.0831°N, 73.7850°W)
Time: 02:34:27
(UTC-04:00)

Vanguard 3 - Pass Details

Date: 02 May 2024
Orbit: 509 x 3232 km, 33.3° (Epoch: 26 May)

Event Time Altitude Azimuth Distance (km) Brightness Sun altitude
Exits shadow 00:59:12 45° 176° (S) 3,933 10.0 -31.4°
Maximum altitude 01:02:00 47° 157° (SSE) 3,810 10.0 -31.3°
Drops below altitude 10° 01:17:31 10° 91° (E) 5,244 11.3 -31.1°
Sets 01:21:11 0° 86° (E) 5,951 11.7 -31.0°
